星链-4679 (STARLINK-4679 )

导读 | 星芒AI

STARLINK-4679 是 SpaceX Starlink 卫星互联网项目中的一颗低轨卫星,属于第 23 批次发射的 Starlink 卫星群。该卫星运行在约 550 公里的近地轨道,旨在为全球用户提供高速、低延迟的宽带互联网服务。它采用先进的相控阵天线和激光通信技术,支持与其他 Starlink 卫星的星间链路,提升网络稳定性和覆盖范围。作为 Starlink 计划的一部分,STARLINK-4679 有助于扩大 SpaceX 在全球卫星互联网市场的影响力。

基本信息
目录编号:
53782
目录名称:
STARLINK-4679
国际标识:
2022-111K
轨道中心:
EARTH
卫星名称:
星链-4679
卫星全名:
星链-4679 (STARLINK-4679 )
卫星状态:
在轨 (已飞行1151 天)
发射日期:
2022-09-11 UTC
国别 :
美国 (US)
星等 :
--
轨道信息
数据来源 国际轨道数据
星历时间: 2025-11-04T19:40:30+0800
13小时前
查看轨道信息
半长轴: 6917.889km
偏心率: 0.0001395
轨道倾角: 53.215°
近地点辐角 85.882°
升交点赤经 116.255°
平近点角 274.233°
近地点: 538.788km
远地点: 540.72km
周期: 95.438分钟
每日圈数: 15.088372
详细信息
固有亮度:
5
最大亮度:
2.5
卫星平台:
Starlink v1.5
覆盖范围:
全球
运营商:
太空探索技术公司
运营商所在国:
美国
制造商(研发单位):
太空探索技术公司
制造商所在国:
美国
使用方式:
暂无
卫星简介
星链(Starlink)计划是由太空探索技术公司(SpaceX)提出的一个巨型低轨卫星互联网星座项目,计划在2019年至2024年间在太空搭建由约1.2万颗卫星组成的“星链”网络,其中1584颗将部署在地球上空550千米处的近地轨道,并从2020年开始工作。该卫星仍在工作。
2D轨道图
3D轨道图
轨道高度分析图
轨道倾角分析图
轨道综合分析图
查看轨道综合分析图